GFSGL_250_spd_000.txt.gz
Wind_Speed
10 21 20 17 16 17 23 20 18 20 27 27 31 27 27 28 26 23 24 23 29 36 40 47 44 40 49 51 49 42 36 46 40 38 41 44 44 43 43 46 50 55 59
13 19 24 21 18 23 25 20 22 19 25 27 22 21 24 26 26 23 21 20 18 22 25 29 29 26 26 27 27 34 29 32 32 33 40 44 45 46 51 52 51 52 48
12 14 28 21 19 23 22 28 21 25 21 18 21 19 18 14 22 21 20 24 21 25 19 21 26 31 36 31 27 27 34 37 41 44 46 48 52 52 48 49 45 44 45
9 13 22 26 19 20 22 23 22 22 16 12 18 19 21 17 15 16 17 21 22 18 23 29 29 31 33 34 36 37 40 38 40 44 45 45 45 47 44 44 44 43 40
10 11 19 21 22 22 23 18 17 17 17 17 16 15 14 13 9 17 18 18 20 22 24 24 29 32 32 35 38 41 43 44 46 46 45 42 40 40 39 39 38 37 36
13 11 11 15 23 16 16 21 24 22 19 20 21 20 19 21 18 17 18 20 19 22 22 27 28 29 30 33 34 34 34 34 35 37 36 35 34 34 36 37 36 39 42
13 14 12 12 12 13 14 16 18 20 24 24 24 22 19 22 20 21 20 20 22 22 21 23 25 25 24 23 24 26 26 28 29 30 32 33 34 32 34 38 42 46 51
12 15 16 15 13 13 12 13 15 16 17 19 20 21 19 19 18 18 15 12 14 15 16 16 18 19 20 21 23 25 26 29 31 31 31 32 35 37 41 43 46 48 49
11 11 13 18 16 14 12 12 11 12 13 13 12 11 13 14 15 14 14 14 14 15 16 16 18 19 20 23 25 24 24 26 29 33 35 38 40 42 43 45 42 46 50
11 10 11 12 16 17 16 16 16 17 18 16 15 13 13 14 15 15 14 15 17 17 18 19 20 19 18 18 19 22 26 28 31 33 35 39 43 46 46 43 46 50 55
11 10 11 12 13 14 14 13 12 12 14 16 17 16 15 15 16 15 17 17 17 20 22 23 22 22 22 24 25 28 30 32 36 42 46 47 49 48 46 50 52 55 66
13 12 11 11 12 15 14 14 14 13 13 15 16 16 16 17 18 19 21 20 21 23 25 25 26 29 30 31 32 35 39 43 47 52 49 46 46 49 52 56 61 68 74
11 10 12 14 14 14 16 18 19 18 17 18 20 20 21 20 21 20 20 22 25 26 26 29 32 33 34 37 40 44 48 52 54 52 49 49 50 54 59 63 68 73 81
13 11 12 13 15 17 18 19 19 17 19 20 19 19 18 22 21 22 24 26 26 29 34 36 37 37 40 44 48 52 54 55 57 58 57 57 59 64 68 70 74 80 85
16 15 16 14 14 16 21 22 20 20 20 18 18 20 22 24 25 27 30 31 31 33 37 40 42 45 49 52 53 55 56 61 60 56 59 60 62 67 72 74 79 84 87
19 18 18 18 16 15 15 15 17 18 21 22 22 22 24 23 24 25 28 32 36 40 43 46 50 52 56 57 54 59 60 57 58 58 65 70 74 77 82 86 88 88 93
27 23 20 20 20 21 21 21 22 21 22 23 23 24 26 28 31 34 36 39 42 45 48 51 55 56 53 54 59 60 52 58 64 73 70 74 78 83 90 93 93 100 105
28 25 24 24 25 25 25 27 29 29 30 31 30 32 34 36 37 39 40 42 46 48 50 52 55 53 55 58 62 62 55 63 72 74 83 86 90 93 93 97 100 106 112
19 19 21 20 24 25 24 25 27 29 33 34 34 34 36 38 40 42 43 46 49 48 48 51 53 55 55 59 60 60 65 70 76 82 87 90 94 100 103 105 108 112 116
22 20 23 25 25 28 29 28 27 27 28 30 31 32 32 34 38 40 41 45 47 48 49 54 46 53 55 58 61 67 74 79 84 87 96 97 107 107 108 110 115 125 128
27 28 30 30 28 29 31 31 30 31 33 35 36 34 35 39 39 39 46 49 52 51 56 54 65 73 76 78 78 75 79 87 94 97 102 109 113 111 114 120 128 134 141
24 21 24 28 33 35 36 34 34 34 37 42 42 46 46 42 42 44 45 48 49 52 50 50 57 76 86 84 86 90 93 101 101 108 117 112 109 116 125 136 139 139 146
32 28 29 32 34 36 37 37 40 43 44 45 45 46 43 46 49 48 52 48 53 57 58 62 68 74 82 91 96 101 104 108 112 116 113 116 122 131 137 142 142 148 149
43 38 37 41 42 38 39 36 38 41 45 47 53 50 54 55 56 55 57 62 67 68 69 74 77 85 90 96 102 106 111 112 111 115 120 126 135 141 141 144 151 141 135
44 47 47 52 46 51 50 52 52 54 50 50 56 54 51 60 66 64 60 64 70 78 80 84 89 96 103 106 108 113 115 115 122 129 138 139 144 144 144 146 135 126 114
54 55 53 56 39 39 49 53 58 62 54 57 57 60 60 61 61 69 78 77 80 84 90 95 97 103 104 107 111 117 120 129 136 141 142 145 141 139 135 125 117 106 99

GFSGL_250_spd_006.txt.gz
Wind_Speed
18 13 13 18 22 22 25 23 26 26 29 37 34 30 23 33 39 54 48 53 56 64 60 68 70 61 51 55 60 56 51 54 46 51 48 54 58 60 59 63 62 62 65
22 18 17 12 20 22 21 23 27 24 22 33 38 36 26 24 37 51 59 60 66 56 59 70 65 60 60 59 58 64 62 55 60 56 55 58 59 61 65 69 67 76 73
21 22 20 14 12 16 24 16 20 19 19 21 30 31 32 24 30 49 62 64 67 67 61 68 66 65 62 60 61 65 69 60 51 59 59 61 61 62 64 72 76 68 57
11 24 22 21 15 15 19 23 19 17 19 17 19 24 31 30 23 33 54 63 68 68 71 69 63 60 53 53 56 55 55 61 64 63 64 67 70 62 62 59 56 61 63
4 25 25 24 18 19 15 19 17 13 13 16 16 17 18 24 25 23 38 51 62 63 60 62 62 60 59 58 58 60 62 58 60 63 67 69 70 68 65 58 59 70 67
5 18 25 24 24 24 23 18 20 16 12 13 12 16 18 17 20 24 32 48 61 56 53 57 56 61 59 59 61 61 60 63 51 53 49 52 54 60 67 64 60 63 61
5 8 23 20 18 24 20 22 22 21 18 11 15 13 13 13 17 17 23 29 35 43 45 46 52 54 54 51 56 50 49 50 53 54 58 61 62 63 65 61 58 57 58
6 9 13 18 18 18 18 19 20 18 21 18 18 19 14 15 17 14 16 21 24 29 29 38 40 41 41 45 50 56 62 59 57 56 52 51 53 55 54 52 52 52 51
11 8 10 16 18 19 22 18 21 22 22 19 18 20 18 19 17 15 21 23 27 30 29 32 34 40 41 38 37 39 42 44 45 47 51 53 51 49 48 45 45 49 53
10 11 13 13 13 16 19 19 21 20 19 19 21 21 21 20 20 20 20 21 24 26 29 31 33 35 36 38 41 44 42 42 45 46 46 46 45 44 45 49 53 57 59
12 12 12 18 15 15 13 12 14 15 16 16 15 15 14 15 16 17 18 20 22 23 23 26 29 31 32 33 34 36 37 38 39 41 41 43 45 49 53 56 60 61 60
16 16 14 14 17 21 19 17 16 16 17 18 19 18 17 16 16 17 17 21 23 24 22 22 25 25 24 27 31 34 38 39 40 42 44 46 50 54 58 62 63 63 61
19 18 18 16 16 16 18 19 19 19 20 20 20 22 23 23 21 19 20 21 22 23 24 24 26 25 26 28 32 37 39 41 43 45 47 51 55 58 63 65 65 63 64
17 20 21 20 19 18 18 18 17 18 19 18 17 17 18 20 20 19 19 21 24 25 26 27 26 26 27 30 34 37 40 42 45 50 53 55 57 61 62 60 58 61 61
19 18 19 20 19 21 22 22 22 24 23 23 22 22 19 19 21 23 25 25 25 27 28 28 30 32 35 37 38 41 45 47 50 52 55 58 61 65 61 58 62 65 68
20 19 19 19 18 18 18 18 20 22 22 23 23 24 23 23 23 25 26 27 27 28 29 30 31 34 38 41 44 47 49 50 52 51 51 56 57 58 60 64 69 70 76
25 21 19 19 20 21 20 18 16 16 17 18 20 23 23 25 25 25 25 26 28 30 32 35 38 41 43 44 47 50 54 56 54 54 55 60 66 69 66 72 78 79 85
27 26 27 26 26 26 27 24 22 21 21 21 21 22 22 25 26 27 28 30 32 34 37 39 41 43 45 49 56 59 58 61 62 61 62 72 78 77 78 83 85 89 95
31 30 28 26 25 25 28 28 27 27 27 25 28 27 28 29 31 32 33 34 36 36 37 38 38 43 49 53 54 55 57 58 60 63 70 76 77 74 81 84 92 97 98
35 36 35 29 27 27 28 28 29 27 23 25 28 28 28 29 30 30 32 33 30 31 34 37 44 48 49 51 57 58 61 64 67 71 73 75 79 82 87 91 96 101 107
37 39 40 37 36 32 32 30 28 28 28 30 32 32 30 31 31 34 35 36 35 36 39 48 50 54 56 58 62 63 65 69 70 73 76 77 79 84 90 95 99 107 115
38 40 40 38 36 35 37 38 37 32 33 34 33 33 34 34 37 38 37 39 40 44 46 53 57 57 60 64 70 68 72 75 76 78 79 83 86 90 94 97 106 112 118
41 40 38 40 38 38 42 44 44 35 30 29 27 28 31 32 37 39 43 45 47 51 56 60 66 67 65 67 69 74 78 81 80 80 82 87 88 92 98 109 110 116 123
44 46 45 44 43 44 44 47 49 43 40 39 36 38 40 40 41 44 46 51 55 57 59 68 70 71 71 74 77 79 82 85 86 87 89 96 99 100 106 112 121 128 132
46 41 41 45 47 48 45 47 48 49 48 48 48 49 50 52 54 55 57 63 66 67 71 73 71 73 78 80 85 89 94 92 92 91 91 96 105 113 116 121 127 129 129
47 49 46 44 47 48 48 45 50 52 51 51 53 53 55 57 59 62 65 72 72 71 69 74 76 80 86 91 93 96 99 94 92 98 102 107 116 118 123 127 128 125 120

GFSGL_250_spd_009.txt.gz
Wind_Speed
18 17 21 20 18 17 19 24 29 27 19 16 19 39 40 34 34 39 38 44 60 57 52 67 76 74 75 69 59 54 49 43 47 51 42 47 52 53 51 53 59 62 63
18 17 22 17 12 12 23 20 26 29 30 24 21 39 37 34 38 45 44 41 61 52 45 61 73 60 68 65 57 55 56 55 55 53 56 56 53 51 51 53 53 59 65
20 19 24 18 11 17 20 20 15 23 29 28 24 28 32 36 46 39 46 38 62 60 58 56 68 53 59 59 62 50 48 52 60 64 58 58 56 57 59 62 65 65 65
4 21 19 15 14 14 20 21 16 17 21 26 30 25 31 43 31 36 45 43 51 60 58 58 60 56 54 60 65 64 56 54 47 48 64 69 58 63 68 67 68 68 74
3 25 22 18 16 17 19 19 14 14 17 20 26 24 25 36 39 42 49 57 57 64 60 61 58 48 41 53 59 74 58 60 61 50 49 53 61 65 67 75 81 79 82
4 14 26 22 16 15 15 18 12 8 13 16 18 19 25 24 42 43 43 57 65 68 64 64 58 51 48 53 56 57 55 54 58 51 63 65 73 73 72 75 73 74 68
4 1 25 25 24 18 17 20 16 9 9 13 15 16 16 18 19 46 50 50 53 48 47 65 64 61 59 55 58 58 61 63 68 74 73 74 76 79 74 71 72 69 75
2 2 15 24 24 22 25 21 23 17 17 14 13 14 14 9 17 18 42 53 56 55 55 55 61 59 59 59 57 60 61 64 61 63 65 66 67 70 68 71 76 77 72
5 3 5 15 16 16 19 15 24 22 19 20 19 18 18 18 16 22 21 32 49 52 55 52 51 56 57 57 54 58 57 62 64 65 63 64 65 68 71 70 64 61 63
7 10 8 7 13 16 17 19 18 20 19 18 18 22 21 21 25 19 19 29 29 44 50 51 46 47 48 47 50 55 56 53 52 52 55 58 59 60 59 57 58 58 60
9 9 10 13 10 9 13 15 18 17 20 19 20 20 22 21 23 26 27 27 26 28 31 38 44 42 41 42 43 46 51 56 61 61 59 57 55 54 55 56 60 62 65
13 12 11 11 15 16 15 13 13 13 14 16 18 18 18 20 21 24 26 29 31 32 38 40 39 40 41 43 46 50 50 49 48 47 49 50 51 54 57 60 65 68 69
12 15 15 15 13 14 16 20 19 17 16 17 17 18 18 19 20 20 22 23 24 26 28 30 30 31 31 32 34 37 40 41 43 44 47 50 53 57 61 65 66 65 66
15 14 17 17 17 16 15 15 16 17 18 16 16 16 17 20 24 26 26 27 27 28 30 30 30 32 34 34 37 38 38 38 42 45 48 52 55 59 63 66 64 68 71
16 16 15 18 19 20 20 19 18 18 18 17 17 16 16 17 17 19 24 27 26 26 28 30 32 33 31 31 31 33 37 40 42 43 50 54 58 59 62 66 69 72 75
20 21 18 17 17 17 18 19 21 22 22 21 21 20 21 21 21 22 24 25 26 26 25 26 26 27 29 32 34 34 38 39 40 46 49 51 54 56 60 65 66 70 74
23 22 20 18 18 18 20 18 17 19 21 21 20 20 23 24 24 24 25 25 24 25 26 28 30 33 33 33 33 29 29 35 44 53 54 56 53 56 61 67 72 76 80
28 24 22 23 24 23 21 21 21 21 21 21 20 20 20 20 21 21 23 24 25 28 30 31 32 32 31 30 31 35 39 43 50 54 62 64 65 69 73 77 81 87 88
31 31 31 26 26 23 22 25 25 25 23 23 24 25 26 27 26 28 30 31 32 33 32 31 29 30 31 32 36 39 46 50 56 61 66 67 68 70 74 78 81 89 90
34 36 35 35 31 27 25 25 24 25 26 28 31 32 31 27 31 31 31 31 32 33 33 34 34 37 40 43 47 52 59 64 68 72 73 75 73 77 82 88 89 97 101
38 36 36 36 34 33 30 31 30 28 25 24 25 33 29 31 35 33 34 33 33 34 37 39 39 42 46 51 55 61 65 70 75 74 77 78 83 89 92 95 102 102 96
43 40 34 35 36 37 35 36 34 35 33 29 30 37 36 35 38 36 34 34 35 36 38 40 42 47 52 56 63 67 73 74 77 79 81 83 89 96 100 104 101 92 100
46 44 41 42 36 34 37 39 37 38 36 36 38 44 41 37 35 32 35 35 37 38 40 45 52 60 61 64 67 69 73 78 78 78 83 91 99 101 105 102 98 109 116
49 52 52 50 45 39 36 38 40 41 38 41 45 45 44 43 43 41 42 42 45 47 51 54 60 64 69 72 72 78 82 82 83 88 89 96 101 105 104 108 115 122 128
46 47 47 43 42 42 46 42 46 49 48 45 46 46 44 46 48 52 56 55 55 56 59 63 61 63 71 74 75 80 84 86 89 91 94 101 106 109 113 117 120 126 126
50 47 46 43 43 44 44 43 43 44 47 48 46 47 50 52 53 54 55 58 58 59 60 65 67 68 72 76 82 83 84 89 94 97 100 105 108 115 117 121 126 128 128

GFSGL_250_spd_015.txt.gz
Wind_Speed
13 16 14 15 9 14 22 24 14 11 14 20 21 20 16 16 18 20 22 24 27 33 39 59 55 60 64 53 50 52 54 55 58 48 57 59 65 61 57 51 48 44 48
16 19 14 16 11 15 18 26 14 13 17 16 17 21 19 19 17 18 22 26 29 33 36 46 51 51 61 53 53 56 57 56 48 46 61 63 51 46 48 47 50 50 53
16 20 11 14 17 12 14 21 21 9 13 16 19 17 22 19 17 19 23 25 23 28 32 41 47 49 53 56 57 62 57 47 40 44 45 48 46 48 50 50 49 45 50
15 25 12 15 16 13 10 16 23 12 13 12 16 18 17 23 19 24 24 34 42 40 38 39 46 42 44 54 59 52 51 46 41 40 47 45 45 41 42 43 45 48 50
15 24 17 16 16 12 16 9 17 14 14 18 12 9 13 27 25 26 27 39 37 42 41 39 42 42 48 53 49 51 43 45 42 41 41 40 40 42 41 41 47 49 53
9 25 20 17 16 12 10 14 12 16 11 13 11 7 9 29 24 21 28 40 30 26 43 36 35 34 45 49 46 38 43 41 41 36 40 40 42 46 48 50 53 53 56
4 18 25 17 22 16 13 7 9 12 11 11 13 10 15 15 17 25 27 28 28 27 35 40 43 41 41 43 51 43 36 41 41 39 46 47 46 49 48 51 55 58 61
4 7 26 23 22 21 17 12 6 7 9 10 7 14 10 9 13 31 32 33 27 29 35 31 31 40 40 37 31 37 32 36 36 44 44 47 51 55 58 57 62 69 71
7 5 19 25 22 22 19 20 18 10 8 8 15 11 12 16 17 21 32 31 34 31 34 34 31 35 36 43 40 39 44 44 43 53 50 52 54 59 61 68 75 79 85
7 3 1 15 23 22 19 16 16 18 14 11 11 11 12 16 13 29 25 32 34 32 30 35 41 40 39 46 43 42 45 46 55 53 50 54 56 67 67 74 78 80 78
7 4 1 4 11 19 19 21 19 20 24 21 14 14 15 14 16 16 31 31 27 39 38 36 39 41 49 50 57 53 55 58 57 55 60 64 72 76 71 73 80 82 80
6 5 4 3 3 6 10 14 12 16 18 20 22 19 19 21 20 18 19 24 33 36 41 48 49 53 52 53 57 59 60 60 64 63 70 77 72 72 75 79 80 78 73
4 6 4 5 5 4 5 6 7 8 10 13 15 19 20 23 27 27 25 25 28 32 35 43 42 51 57 58 58 70 68 72 73 74 71 71 78 77 75 65 60 63 61
6 5 7 6 7 7 8 7 7 11 13 12 10 10 12 15 20 24 27 30 31 32 34 34 35 42 48 54 57 57 60 66 67 66 65 63 61 58 56 56 58 56 55
10 9 9 8 8 10 11 11 10 9 9 11 14 14 14 15 18 20 21 24 26 30 34 37 40 41 42 44 43 45 48 52 54 54 53 52 49 49 52 54 55 58 60
15 14 12 12 11 10 11 12 12 13 14 14 14 14 14 14 15 15 17 19 21 23 27 31 32 31 34 37 39 40 41 42 43 42 42 44 48 51 52 54 58 62 68
17 17 16 20 16 14 13 12 12 11 10 11 13 15 15 15 16 17 18 19 20 20 21 23 25 29 32 34 36 35 35 38 40 42 46 47 48 50 51 55 62 67 71
19 15 16 15 19 18 18 16 15 15 14 13 14 14 11 12 12 13 13 13 14 15 17 19 21 24 26 30 32 35 38 41 43 44 45 47 50 53 55 59 64 69 77
20 23 22 20 19 22 22 22 22 20 19 19 19 18 17 18 19 18 20 20 20 21 23 24 24 27 30 32 36 38 40 41 41 45 49 51 54 55 60 67 76 79 81
23 23 26 28 26 22 25 28 25 24 23 24 23 22 22 21 24 25 25 24 23 23 25 26 26 29 30 33 37 39 41 44 48 51 52 54 57 62 73 77 78 80 84
30 28 26 29 32 33 29 29 31 28 30 29 28 26 23 22 27 27 27 29 28 26 26 28 30 32 35 37 39 42 44 45 48 53 56 61 68 74 75 77 78 83 87
33 33 31 30 29 30 36 34 31 32 33 33 34 33 32 30 32 32 31 33 36 32 29 31 34 38 38 40 44 47 49 54 58 61 64 69 72 74 75 80 82 86 93
38 35 35 34 33 29 30 37 35 36 32 29 33 38 38 36 35 37 40 41 40 39 33 29 33 36 40 45 49 52 55 58 61 64 70 73 75 75 76 79 86 90 91
45 39 37 38 36 33 31 30 37 37 36 35 32 32 35 38 38 43 45 43 36 38 38 41 44 47 49 49 51 55 57 55 59 65 70 73 73 73 79 84 91 94 94
46 44 40 37 41 41 39 37 32 37 40 42 42 41 40 39 41 44 47 41 41 39 44 46 52 54 51 53 53 54 62 62 66 68 70 71 74 81 87 92 97 94 100
48 44 45 43 43 47 47 43 40 39 42 46 47 45 45 47 43 45 47 52 49 48 49 51 53 52 50 55 61 64 69 71 71 73 78 82 86 87 92 97 94 98 102